Location: Bonac
(42.8765°N, 0.9753°E)
Time: 15:55:58
(UTC+00:00)

Cosmos 1953 - Pass Details

Date: 18 April 2026
Orbit: 471 x 483 km, 82.5° (Epoch: 14 May)

Event Time Altitude Azimuth Distance (km) Brightness Sun altitude
Rises 19:38:34 0° 237° (WSW) 2,514 6.1 -10.5°
Maximum altitude 19:43:09 11° 291° (WNW) 1,599 6.2 -11.3°
Drops below altitude 10° 19:44:06 10° 307° (NW) 1,653 6.2 -11.4°
Sets 19:47:47 0° 346° (NNW) 2,544 6.4 -12.0°
